TimePDT,TemperatureF,Dew PointF,Humidity,Sea Level PressureIn,VisibilityMPH,Wind Direction,Wind SpeedMPH,Gust SpeedMPH,PrecipitationIn,Events,Conditions,WindDirDegrees,DateUTC
12:53 AM,57.9,55.0,90,29.94,5.0,Calm,Calm,-,N/A,,Clear,0,2013-08-15 07:53:00
1:29 AM,57.0,55.0,93,29.94,6.0,Calm,Calm,-,N/A,,Mostly Cloudy,0,2013-08-15 08:29:00
1:53 AM,57.9,57.0,97,29.94,8.0,West,3.5,-,N/A,,Overcast,260,2013-08-15 08:53:00
2:02 AM,60.1,57.0,90,29.93,10.0,West,4.6,-,N/A,,Overcast,270,2013-08-15 09:02:00
2:24 AM,59.0,57.0,93,29.93,10.0,Calm,Calm,-,N/A,,Partly Cloudy,0,2013-08-15 09:24:00
2:53 AM,57.9,57.0,97,29.93,10.0,Calm,Calm,-,N/A,,Scattered Clouds,0,2013-08-15 09:53:00
3:38 AM,57.9,57.0,97,29.94,10.0,WSW,3.5,-,N/A,,Mostly Cloudy,240,2013-08-15 10:38:00
3:53 AM,57.9,55.9,93,29.94,10.0,SSW,4.6,-,N/A,,Overcast,210,2013-08-15 10:53:00
4:16 AM,59.0,57.0,93,29.94,10.0,SW,3.5,-,N/A,,Overcast,220,2013-08-15 11:16:00
4:41 AM,59.0,57.0,93,29.94,10.0,WSW,3.5,-,N/A,,Overcast,240,2013-08-15 11:41:00
4:53 AM,59.0,57.0,93,29.94,10.0,West,5.8,-,N/A,,Overcast,260,2013-08-15 11:53:00
5:53 AM,61.0,59.0,93,29.94,10.0,West,3.5,-,N/A,,Overcast,270,2013-08-15 12:53:00
6:06 AM,61.0,59.0,93,29.93,10.0,West,4.6,-,N/A,,Overcast,260,2013-08-15 13:06:00
6:53 AM,61.0,59.0,93,29.94,10.0,WSW,5.8,-,N/A,,Overcast,250,2013-08-15 13:53:00
7:53 AM,62.1,60.1,93,29.95,10.0,West,3.5,-,N/A,,Overcast,260,2013-08-15 14:53:00
8:53 AM,63.0,60.1,90,29.96,10.0,WNW,4.6,-,N/A,,Overcast,290,2013-08-15 15:53:00
9:35 AM,63.0,60.1,90,29.96,10.0,West,4.6,-,N/A,,Overcast,270,2013-08-15 16:35:00
9:53 AM,64.0,60.1,87,29.96,10.0,WNW,4.6,-,N/A,,Overcast,300,2013-08-15 16:53:00
10:07 AM,64.0,60.1,87,29.96,10.0,WNW,4.6,-,N/A,,Overcast,300,2013-08-15 17:07:00
10:18 AM,64.0,60.1,87,29.96,10.0,West,3.5,-,N/A,,Overcast,280,2013-08-15 17:18:00
10:53 AM,63.0,59.0,87,29.97,10.0,North,3.5,-,N/A,,Overcast,10,2013-08-15 17:53:00
11:53 AM,64.9,59.0,81,29.97,10.0,NW,3.5,-,N/A,,Overcast,310,2013-08-15 18:53:00
12:37 PM,66.0,59.0,78,29.97,10.0,North,3.5,-,N/A,,Mostly Cloudy,350,2013-08-15 19:37:00
12:53 PM,66.0,57.9,75,29.98,10.0,North,3.5,-,N/A,,Mostly Cloudy,350,2013-08-15 19:53:00
1:53 PM,66.0,57.9,75,29.99,10.0,NNW,3.5,-,N/A,,Overcast,340,2013-08-15 20:53:00
2:53 PM,63.0,60.1,90,30.00,10.0,NW,3.5,-,0.01,Rain,Light Rain,320,2013-08-15 21:53:00
3:53 PM,64.0,61.0,90,30.00,10.0,Calm,Calm,-,0.01,,Overcast,0,2013-08-15 22:53:00
4:30 PM,63.0,60.1,90,29.99,10.0,Calm,Calm,-,N/A,,Overcast,0,2013-08-15 23:30:00
4:53 PM,64.0,60.1,87,29.99,10.0,WNW,3.5,-,N/A,,Overcast,290,2013-08-15 23:53:00
5:53 PM,63.0,60.1,90,29.99,10.0,North,3.5,-,N/A,,Mostly Cloudy,350,2013-08-16 00:53:00
6:36 PM,64.0,60.1,87,29.98,10.0,Calm,Calm,-,N/A,,Mostly Cloudy,0,2013-08-16 01:36:00
6:53 PM,66.0,60.1,81,29.98,10.0,Calm,Calm,-,N/A,,Overcast,0,2013-08-16 01:53:00
7:05 PM,66.0,60.1,81,29.98,-9999.0,North,-9999.0,-,N/A,,Unknown,0,2013-08-16 02:05:00
7:53 PM,62.1,57.9,86,29.98,10.0,North,3.5,-,N/A,,Scattered Clouds,350,2013-08-16 02:53:00
8:53 PM,57.9,55.9,93,29.99,10.0,Calm,Calm,-,N/A,,Partly Cloudy,0,2013-08-16 03:53:00
10:53 PM,57.9,55.9,93,30.00,10.0,Calm,Calm,-,N/A,,Clear,0,2013-08-16 05:53:00
11:53 PM,55.9,54.0,93,29.99,10.0,South,3.5,-,N/A,,Clear,190,2013-08-16 06:53:00